Погода в Подгощах

Россия / Новгородская область     58°09′39″N   30°44′16″E
темп.,
°C
ветер,
м/с
пор.,
м/с
влажн.,
%
обл.,
%
осадки,
мм/ч
давл.,
гПа
погр.,
м
28 июля, ср
ср2800:00+19юв3566100 0.0 101580
03:00+17ю368892 0.0 1014129
06:00+18ююв1188100 0.1 101229
09:00+22ю236697 0.1 1012460
12:00+21юз2476100 0.2 1011383
15:00+20юв2391100 1.1 1010128
18:00+23ю3572100 0.1 1008630
21:00+20ююз2391100 0.7 100759
29 июля, чт
чт2900:00+18зюз2295100 0.0 100737
03:00+17зюз3496100 0.8 100661
06:00+17зюз239589 0.6 100661
09:00+20зюз2481100 0.6 1005262
12:00+24зюз466469 1.1 10051060
15:00+25юз57648 1.6 10041311
18:00+25з385526 0.5 10021597
21:00+19юз23815 0.8 100341
30 июля, пт
пт3000:00+19зюз377324 0.0 1003144
03:00+16з368985 0.1 1003130
06:00+15юз26925 0.0 1003163
09:00+20зюз596690 0.2 1003800
12:00+23зюз694151 0.0 10032324
15:00+22юз4945100 0.0 10031900
18:00+21юз484795 0.0 10021201
21:00+17ююз4107095 0.0 1001268
31 июля, сб
сб3100:00+16ююз5136210 0.0 1000496
03:00+17юз61354100 0.0 9981131
06:00+14юз6148489 0.4 998883
09:00+19зюз6107011 0.5 9991217
12:00+21зюз6116548 0.3 10011379
15:00+24зюз61046100 0.3 10012225
18:00+21зюз5107763 0.9 10021085
21:00+18юз2287100 1.2 100327
1 августа, вс
вс100:00+17ююз2482100 0.1 100279
03:00+15юз2783100 0.1 1002128
06:00+15ююз41196100 2.1 1001445
09:00+18юз48864 2.8 1002669
12:00+23зюз6952100 0.1 10021771
15:00+22зюз7105458 0.1 10021734
18:00+22юз5105568 0.0 10031304
21:00+19з385920 0.0 1004278